Date String (YYYY-MM-DD hh:mm:ss) UTC,Instrument flags,absolute air pressure of the measurement (hPa),sample flow rate (lpm),inlet stack bypass flow (lpm),air temperature of the measurement (°C),ambient temperature measured by the external sensor (°C),aerosol sample conditioner tube jacket temperature (°C),OPC LED temperature (°C),internal box temperature (°C),relative humidity of the measurement (%),span deviation,mass concentration of particles derived from Lorenz-Mie calculation of OPC scattering (μg/m³),mass concentration of particles derived from Lorenz-Mie calculation of OPC scattering (μg/m³),mass concentration of particles derived from Lorenz-Mie calculation of OPC scattering (μg/m³)
DateTimeUTC,F1_M11,P_M11,Q1_M11,Q2_M11,T1_M11,T2_M11,T3_M11,T4_M11,T5_M11,U1_M11,ZSPAN_M11,X2_M11,X0_M11,X1_M11
2023-06-13 10:00:00,SystemResetWarning,0829.6,4.99,000.00,029.9,028.1,000.0,038.4,031.3,25.5,0000.0,0003.55,0006.40,0003.02
2023-06-13 10:01:00,SystemResetWarning,0829.6,5.00,000.00,029.9,028.1,000.0,038.4,031.3,25.5,0000.0,0003.56,0006.39,0003.05
2023-06-13 10:02:00,SystemResetWarning,0829.6,5.01,000.00,029.9,028.1,000.0,038.4,031.3,25.5,0000.0,0003.58,0006.39,0003.08
2023-06-13 10:03:00,SystemResetWarning,0829.6,5.01,000.00,029.9,028.1,000.0,038.4,031.3,25.5,0000.0,0003.57,0006.34,0003.09
2023-06-13 10:04:00,SystemResetWarning,0829.6,5.01,000.00,029.8,028.1,000.0,038.4,031.3,25.5,0000.0,0003.58,0006.38,0003.10
2023-06-13 10:05:00,SystemResetWarning,0829.6,5.00,000.00,029.9,028.1,000.0,038.4,031.3,25.5,0000.0,0003.61,0006.66,0003.11
2023-06-13 10:06:00,SystemResetWarning,0829.6,5.00,000.00,029.8,028.1,000.0,038.4,031.3,25.5,0000.0,0003.62,0006.85,0003.11
2023-06-13 10:07:00,SystemResetWarning,0829.6,5.00,000.00,029.8,028.1,000.0,038.4,031.3,25.5,0000.0,0003.64,0006.87,0003.13
2023-06-13 10:08:00,SystemResetWarning,0829.6,5.00,000.00,029.8,028.1,000.0,038.4,031.3,25.5,0000.0,0003.64,0006.73,0003.14
2023-06-13 10:09:00,SystemResetWarning,0829.6,5.00,000.00,029.8,028.1,000.0,038.4,031.3,25.6,0000.0,0003.65,0006.66,0003.17
2023-06-13 10:10:00,SystemResetWarning,0829.7,5.00,000.00,029.8,028.1,000.0,038.4,031.3,25.6,0000.0,0003.67,0006.74,0003.18
2023-06-13 10:11:00,SystemResetWarning,0829.7,5.00,000.00,029.8,028.1,000.0,038.4,031.3,25.6,0000.0,0003.68,0006.79,0003.18
2023-06-13 10:12:00,SystemResetWarning,0829.7,5.01,000.00,029.9,028.1,000.0,038.4,031.3,25.6,0000.0,0003.70,0006.80,0003.18
2023-06-13 10:13:00,SystemResetWarning,0829.6,5.00,000.00,029.9,028.1,000.0,038.4,031.3,25.6,0000.0,0003.75,0007.05,0003.20
2023-06-13 10:14:00,SystemResetWarning,0829.7,5.00,000.00,029.9,028.1,000.0,038.4,031.3,25.6,0000.0,0003.81,0007.29,0003.23
2023-06-13 10:15:00,SystemResetWarning,0829.7,5.00,000.00,029.9,028.1,000.0,038.4,031.3,25.6,0000.0,0003.87,0007.87,0003.25
2023-06-13 10:16:00,SystemResetWarning,0829.6,5.00,000.00,029.9,028.1,000.0,038.4,031.3,25.6,0000.0,0003.90,0008.31,0003.28
2023-06-13 10:17:00,SystemResetWarning,0829.7,4.99,000.00,029.9,028.1,000.0,038.4,031.3,25.6,0000.0,0003.92,0008.27,0003.31
2023-06-13 10:18:00,SystemResetWarning,0829.7,5.00,000.00,029.9,028.1,000.0,038.4,031.3,25.6,0000.0,0003.96,0008.35,0003.35
2023-06-13 10:19:00,SystemResetWarning,0829.6,5.00,000.00,029.9,028.1,000.0,038.4,031.3,25.6,0000.0,0004.00,0008.42,0003.39
2023-06-13 10:20:00,SystemResetWarning,0829.6,5.01,000.00,029.8,028.1,000.0,038.4,031.3,25.6,0000.0,0004.05,0008.48,0003.42
2023-06-13 10:21:00,SystemResetWarning,0829.7,5.01,000.00,029.8,028.1,000.0,038.4,031.3,25.6,0000.0,0004.09,0008.50,0003.47
2023-06-13 10:22:00,SystemResetWarning,0829.7,5.00,000.00,029.8,028.1,000.0,038.4,031.3,25.7,0000.0,0004.15,0008.48,0003.55
2023-06-13 10:23:00,SystemResetWarning,0829.7,5.01,000.00,029.8,028.1,000.0,038.4,031.3,25.7,0000.0,0004.21,0008.62,0003.63
2023-06-13 10:24:00,SystemResetWarning,0829.7,4.99,000.00,029.8,028.1,000.0,038.4,031.3,25.7,0000.0,0004.26,0008.74,0003.70
2023-06-13 10:25:00,SystemResetWarning,0829.7,4.99,000.00,029.8,028.1,000.0,038.4,031.3,25.8,0000.0,0004.30,0008.78,0003.79
2023-06-13 10:26:00,SystemResetWarning,0829.7,5.00,000.00,029.8,028.1,000.0,038.4,031.3,25.8,0000.0,0004.38,0008.67,0003.86
2023-06-13 10:27:00,SystemResetWarning,0829.7,5.01,000.00,029.8,028.1,000.0,038.4,031.3,25.8,0000.5,0004.45,0008.11,0003.93
2023-06-13 10:28:00,SystemResetWarning,0829.7,5.01,000.00,029.8,028.1,000.0,038.4,031.3,25.8,0001.5,0004.51,0008.14,0004.00
2023-06-13 10:29:00,SystemResetWarning,0829.7,5.00,000.00,029.8,028.1,000.0,038.4,031.3,25.8,0000.0,0004.58,0008.21,0004.06
2023-06-13 10:30:00,SystemResetWarning,0829.7,4.99,000.00,029.8,028.1,000.0,038.4,031.3,25.8,0000.0,0004.61,0008.11,0004.13
2023-06-13 10:31:00,SystemResetWarning,0829.7,5.00,000.00,029.8,028.1,000.0,038.4,031.3,25.8,0000.0,0004.63,0008.03,0004.19
2023-06-13 10:32:00,SystemResetWarning,0829.7,5.00,000.00,029.9,028.1,000.0,038.4,031.3,25.8,0000.0,0004.69,0008.12,0004.22
2023-06-13 10:33:00,SystemResetWarning,0829.7,5.00,000.00,029.8,028.1,000.0,038.4,031.3,25.9,0000.0,0004.69,0008.10,0004.23
2023-06-13 10:34:00,SystemResetWarning,0829.7,5.01,000.00,029.8,028.1,000.0,038.4,031.2,25.9,0000.0,0004.69,0008.04,0004.22
2023-06-13 10:35:00,SystemResetWarning,0829.7,5.01,000.00,029.8,028.1,000.0,038.4,031.3,25.9,0000.0,0004.68,0007.95,0004.20
2023-06-13 10:36:00,SystemResetWarning,0829.6,5.00,000.00,029.8,028.1,000.0,038.4,031.3,25.9,0000.0,0004.67,0007.86,0004.16
2023-06-13 10:37:00,SystemResetWarning,0829.6,4.99,000.00,029.8,028.1,000.0,038.4,031.3,25.9,0000.0,0004.62,0007.83,0004.13
2023-06-13 10:38:00,SystemResetWarning,0829.6,5.00,000.00,029.8,028.1,000.0,038.4,031.3,25.9,0000.0,0004.60,0007.75,0004.11
2023-06-13 10:39:00,SystemResetWarning,0829.6,5.00,000.00,029.8,028.1,000.0,038.4,031.3,25.9,0000.0,0004.57,0007.81,0004.06
2023-06-13 10:40:00,SystemResetWarning,0829.6,5.00,000.00,029.8,028.1,000.0,038.4,031.3,25.9,0000.0,0004.52,0007.69,0004.01
2023-06-13 10:41:00,SystemResetWarning,0829.6,5.01,000.00,029.8,028.1,000.0,038.4,031.3,25.9,0000.0,0004.49,0007.68,0003.96
2023-06-13 10:42:00,SystemResetWarning,0829.6,5.01,000.00,029.8,028.1,000.0,038.4,031.2,25.9,0000.0,0004.48,0007.73,0003.92
2023-06-13 10:43:00,SystemResetWarning,0829.6,5.00,000.00,029.8,028.1,000.0,038.4,031.2,25.9,0000.0,0004.44,0007.66,0003.89
2023-06-13 10:44:00,SystemResetWarning,0829.6,4.99,000.00,029.8,028.1,000.0,038.4,031.3,25.9,0000.0,0004.43,0008.01,0003.85
2023-06-13 10:45:00,SystemResetWarning,0829.6,4.99,000.00,029.8,028.1,000.0,038.4,031.2,25.9,0000.0,0004.44,0008.26,0003.84
2023-06-13 10:46:00,SystemResetWarning,0829.6,5.00,000.00,029.8,028.1,000.0,038.4,031.2,25.9,0000.0,0004.41,0008.22,0003.83
2023-06-13 10:47:00,SystemResetWarning,0829.6,4.99,000.00,029.8,028.1,000.0,038.4,031.2,25.9,0000.0,0004.40,0008.21,0003.82
2023-06-13 10:48:00,SystemResetWarning,0829.6,4.99,000.00,029.8,028.1,000.0,038.4,031.2,25.9,0000.0,0004.41,0008.16,0003.81
2023-06-13 10:49:00,SystemResetWarning,0829.6,5.00,000.00,029.8,028.1,000.0,038.4,031.2,25.9,0000.0,0004.37,0008.06,0003.79
2023-06-13 10:50:00,SystemResetWarning,0829.7,5.00,000.00,029.8,028.1,000.0,038.4,031.2,25.9,0000.0,0004.35,0008.00,0003.79
2023-06-13 10:51:00,SystemResetWarning,0829.7,5.00,000.00,029.8,028.1,000.0,038.4,031.2,25.9,0000.0,0004.35,0008.03,0003.79
2023-06-13 10:52:00,SystemResetWarning,0829.7,5.01,000.00,029.8,028.1,000.0,038.4,031.2,26.0,0000.0,0004.33,0008.03,0003.79
2023-06-13 10:53:00,SystemResetWarning,0829.7,5.00,000.00,029.8,028.1,000.0,038.3,031.3,26.0,0000.0,0004.29,0007.95,0003.78
2023-06-13 10:54:00,SystemResetWarning,0829.6,5.01,000.00,029.8,028.1,000.0,038.3,031.3,26.0,0000.0,0004.31,0007.99,0003.78
2023-06-13 10:55:00,SystemResetWarning,0829.6,4.99,000.00,029.8,028.1,000.0,038.3,031.2,26.0,0000.0,0004.33,0007.92,0003.80
2023-06-13 10:56:00,SystemResetWarning,0829.6,5.00,000.00,029.8,028.1,000.0,038.3,031.2,26.0,0000.0,0004.31,0007.48,0003.80
2023-06-13 10:57:00,SystemResetWarning,0829.6,5.00,000.00,029.8,028.1,000.0,038.3,031.2,26.0,0000.0,0004.30,0007.45,0003.81
2023-06-13 10:58:00,SystemResetWarning,0829.5,5.01,000.00,029.8,028.1,000.0,038.3,031.2,26.0,0000.0,0004.31,0007.49,0003.82
2023-06-13 10:59:00,SystemResetWarning,0829.6,5.00,000.00,029.8,028.1,000.0,038.3,031.2,26.0,0000.0,0004.29,0007.47,0003.82
